Location: Caltech
(34.1382°N, 118.1253°W)
Time: 13:28:10
(UTC-07:00)

ASTRO E2 - Visible Passes

Search period start: 20 April 2018 00:00
Search period end: 30 April 2018 00:00
Orbit: 513 x 520 km, 31.4° (Epoch: 19 April)

Date Brightness Start Highest point End Pass type
(mag) Time Alt. Az. Time Alt. Az. Time Alt. Az.
20 Apr 4.3 21:15:09 10° SW 21:17:03 22° SSW 21:17:03 22° SSW visible
21 Apr 3.4 20:57:25 10° SW 21:00:59 35° SSE 21:00:59 35° SSE visible
22 Apr 3.3 20:39:43 10° SW 20:43:28 38° SSE 20:44:45 29° SE visible
23 Apr 3.2 20:22:02 10° WSW 20:25:49 42° SSE 20:28:23 18° ESE visible
23 Apr 5.1 22:02:13 10° W 22:03:18 18° WSW 22:03:18 18° WSW visible
24 Apr 3.1 20:04:21 10° WSW 20:08:11 45° S 20:11:55 11° E visible
24 Apr 4.2 21:44:35 10° W 21:46:49 30° WSW 21:46:49 30° WSW visible
25 Apr 3.2 21:26:58 10° W 21:30:15 49° SW 21:30:15 49° SW visible
26 Apr 2.8 21:09:22 10° W 21:13:17 54° S 21:13:38 52° SSE visible
27 Apr 3.0 20:51:45 10° W 20:55:39 51° S 20:56:58 35° SE visible
28 Apr 3.1 20:34:09 10° W 20:38:02 49° S 20:40:17 22° SE visible
28 Apr 5.6 22:15:05 10° WSW 22:15:10 10° WSW 22:15:10 10° WSW visible
29 Apr 3.3 20:16:33 10° W 20:20:24 45° S 20:23:35 14° ESE visible
29 Apr 5.2 21:57:38 10° WSW 21:58:28 13° WSW 21:58:28 13° WSW visible
